Location: Unspecified
(0.0000°N, 0.0000°E)
Time: 00:39:27
(UTC+00:00)

Courier 1B - All Passes

Search period start: 28 April 2017 00:00
Search period end: 08 May 2017 00:00
Orbit: 963 x 1209 km, 28.3° (Epoch: 26 April)

Date Brightness Start Highest point End Pass type
(mag) Time Alt. Az. Time Alt. Az. Time Alt. Az.
28 Apr - 03:55:26 10° N 03:58:14 12° NNE 04:01:00 10° NE visible
28 Apr - 05:46:42 10° NW 05:53:38 34° NNE 06:00:21 10° E daylight
28 Apr - 07:40:27 10° WNW 07:48:08 77° SSW 07:55:24 10° SE daylight
28 Apr - 09:36:58 10° WSW 09:42:33 23° SSW 09:47:55 10° SSE daylight
28 Apr - 17:20:51 10° SSW 17:26:04 25° SSE 17:31:25 10° E daylight
28 Apr - 19:13:35 10° WSW 19:20:13 89° NNW 19:27:13 10° ENE visible
28 Apr - 21:08:59 10° W 21:14:34 26° NNW 21:20:27 10° NNE visible
29 Apr - 04:53:12 10° NNW 04:59:31 26° NNE 05:05:42 10° E visible
29 Apr - 06:46:23 10° NW 06:54:12 80° NNE 07:01:38 10° ESE daylight
29 Apr - 08:42:01 10° W 08:48:34 32° SSW 08:54:50 10° SSE daylight
29 Apr - 16:27:56 10° SSW 16:32:11 18° SSE 16:36:28 10° ESE daylight
29 Apr - 18:20:00 10° SW 18:26:28 65° SSE 18:33:13 10° ENE visible
29 Apr - 20:14:36 10° W 20:20:37 35° NNW 20:26:59 10° NE visible
29 Apr - 22:13:27 10° NW 22:15:44 12° NNW 22:18:03 10° N visible
30 Apr - 03:59:54 10° NNW 04:05:19 20° NNE 04:10:42 10° ENE visible
30 Apr - 05:52:30 10° NW 06:00:13 59° NNE 06:07:39 10° ESE daylight
30 Apr - 07:47:22 10° W 07:54:37 44° SSW 08:01:31 10° SE daylight
30 Apr - 09:46:03 10° SW 09:49:26 13° SSW 09:52:45 10° S daylight
30 Apr - 15:35:24 10° S 15:38:11 13° SSE 15:40:58 10° SE daylight
30 Apr - 17:26:33 10° SW 17:32:43 46° SSE 17:39:02 10° ENE daylight
30 Apr - 19:20:28 10° WSW 19:26:46 48° NNW 19:33:24 10° NE visible
30 Apr - 21:17:46 10° NW 21:21:31 15° NNW 21:25:24 10° NNE visible
01 May - 03:06:52 10° N 03:11:03 15° NNE 03:15:13 10° NE visible
01 May - 04:58:47 10° NW 05:06:11 44° NNE 05:13:27 10° E visible
01 May - 06:52:58 10° WNW 07:00:39 60° SSW 07:08:01 10° SE daylight
01 May - 08:50:16 10° WSW 08:55:18 19° SSW 09:00:11 10° SSE daylight
01 May - 16:33:14 10° SSW 16:38:57 32° SSE 16:44:42 10° E daylight
01 May - 18:26:32 10° WSW 18:33:00 68° NNW 18:39:43 10° NE visible
01 May - 20:22:44 10° WNW 20:27:26 20° NNW 20:32:19 10° NNE visible
02 May - 02:14:31 10° N 02:16:41 11° NNE 02:18:52 10° NE visible
02 May - 04:05:14 10° NNW 04:12:06 33° NNE 04:18:57 10° E visible
02 May - 05:58:47 10° WNW 06:06:41 82° SSW 06:14:20 10° ESE daylight
02 May - 07:55:02 10° W 08:01:13 26° SSW 08:07:11 10° SSE daylight
02 May - 15:40:05 10° SSW 15:45:07 23° SSE 15:50:07 10° ESE daylight
02 May - 17:32:46 10° WSW 17:39:16 86° SSE 17:45:55 10° ENE daylight
02 May - 19:28:05 10° W 19:33:28 26° NNW 19:39:04 10° NNE visible
03 May - 03:11:51 10° NNW 03:17:58 25° NNE 03:24:08 10° ENE visible
03 May - 05:04:49 10° NW 05:12:41 76° NNE 05:20:26 10° ESE visible
03 May - 07:00:11 10° W 07:07:11 35° SSW 07:13:56 10° SE daylight
03 May - 09:00:16 10° SW 09:02:20 11° SSW 09:04:23 10° S daylight
03 May - 14:47:06 10° SSW 14:51:11 17° SSE 14:55:13 10° ESE daylight
03 May - 16:39:10 10° SW 16:45:33 61° SSE 16:51:59 10° ENE daylight
03 May - 18:33:44 10° W 18:39:36 36° NNW 18:45:40 10° NE visible
03 May - 20:32:42 10° NW 20:34:31 11° NNW 20:36:20 10° N visible
04 May - 02:18:43 10° NNW 02:23:47 19° NNE 02:28:55 10° ENE visible
04 May - 04:11:01 10° NW 04:18:40 56° NNE 04:26:19 10° ESE visible
04 May - 06:05:38 10° WNW 06:13:09 48° SSW 06:20:29 10° SE daylight
04 May - 08:03:48 10° WSW 08:08:04 16° SSW 08:12:16 10° S daylight
04 May - 13:54:30 10° S 13:57:09 12° SSE 13:59:46 10° SE daylight
04 May - 15:45:40 10° SW 15:51:49 42° SSE 15:57:54 10° E daylight
04 May - 17:39:35 10° WSW 17:45:49 51° NNW 17:52:11 10° NE daylight
04 May - 19:36:51 10° NW 19:40:23 15° NNW 19:43:59 10° N visible
05 May - 01:25:58 10° N 01:29:32 14° NNE 01:33:09 10° NE visible
05 May - 03:17:25 10° NW 03:24:38 41° NNE 03:31:56 10° E visible
05 May - 05:11:21 10° WNW 05:19:08 65° SSW 05:26:51 10° SE visible
05 May - 07:08:16 10° WSW 07:13:53 21° SSW 07:19:23 10° SSE daylight
05 May - 14:52:18 10° SSW 14:58:01 30° SSE 15:03:36 10° E daylight
05 May - 16:45:38 10° WSW 16:52:06 72° NNW 16:58:35 10° NE daylight
05 May - 18:41:47 10° WNW 18:46:23 20° NNW 18:51:03 10° NNE visible
06 May - 02:24:00 10° NNW 02:30:34 31° NNE 02:37:17 10° E visible
06 May - 04:17:17 10° WNW 04:25:07 86° SSW 04:33:00 10° ESE visible
06 May - 06:13:12 10° W 06:19:44 28° SSW 06:26:11 10° SSE daylight
06 May - 13:59:02 10° SSW 14:04:08 22° SSE 14:09:05 10° ESE daylight
06 May - 15:51:49 10° WSW 15:58:23 81° SSE 16:04:52 10° ENE daylight
06 May - 17:47:08 10° W 17:52:30 27° NNW 17:57:55 10° NNE daylight
07 May - 01:30:48 10° NNW 01:36:28 23° NNE 01:42:17 10° ENE visible
07 May - 03:23:26 10° NW 03:31:07 71° NNE 03:38:58 10° ESE visible
07 May - 05:18:30 10° W 05:25:39 38° SSW 05:32:47 10° SE visible
07 May - 07:17:39 10° SW 07:20:53 13° SSW 07:24:04 10° S daylight
07 May - 13:05:56 10° SSW 13:10:08 17° SSE 13:14:13 10° ESE daylight
07 May - 14:58:08 10° SW 15:04:40 57° SSE 15:11:00 10° ENE daylight
07 May - 16:52:43 10° W 16:58:41 38° NNW 17:04:38 10° NE daylight
07 May - 18:51:45 10° NW 18:53:24 11° NNW 18:55:02 10° N visible
